Home   Weather   Elverum   Past weeks

Flag for Norway Past Weather in Elverum, Norway — Yesterday and Last 2 Weeks

Now
27 °F

Chilly.


Feels Like: 27 °F
Forecast: 11 / 28 °F
Wind: 2 mph from Northwest

Location: Haugedalshogda

Current Time: Feb 24, 2017 at 7:03:38 pm

Latest Report: Feb 24, 2017 at 6:00 pm


Visibility: N/A

Pressure: 29.64 "Hg

Humidity: 57%

Dew Point: 13 °F

Location of ElverumLocation

Past Weather in Elverum — Graph

°F

Elverum Temperature Yesterday

Maximum temperature yesterday: 31 °F (at 3:00 pm)
Minimum temperature yesterday: 1 °F (at 11:00 pm)
Average temperature yesterday: 21 °F

High & Low Weather Summary for the Past Weeks

 TemperatureHumidityPressure
High39 °F (Feb 20, 4:00 am)95% (Feb 21, 3:00 am)30.93 "Hg (Feb 21, 3:00 am)
Low-10 °F (Feb 24, 6:00 am)46% (Feb 23, 2:00 pm)28.64 "Hg (Feb 22, 4:00 pm)
Average20 °F84%30.03 "Hg
* Reported Feb 9 5:00 pm — Feb 24 5:00 pm, Elverum, Weather by CustomWeather, © 2017

Note: Actual official high and low records may vary slightly from our data, if they occured in-between our weather recording intervals... More about our weather records

Advertising

Elverum Weather History for the Previous 24 Hours

Scroll right to see more
 ConditionsComfort  
Time TempWeatherWind HumidityBarometerVisibility
5:00 pm
Fri, Feb 24
30 °FChilly.5 mph53%29.61 "HgN/A
4:00 pm30 °FChilly.5 mph53%29.58 "HgN/A
3:00 pm32 °FChilly.5 mph49%29.56 "HgN/A
2:00 pm30 °FChilly.2 mph51%29.55 "HgN/A
1:00 pm26 °FChilly.2 mph61%29.55 "HgN/A
12:00 pm17 °FCold.1 mph75%29.56 "HgN/A
11:00 am8 °FFrigid.1 mph79%29.57 "HgN/A
10:00 am4 °FFrigid.1 mph78%29.56 "HgN/A
9:00 am-4 °FFrigid.1 mph83%29.56 "HgN/A
8:00 am-9 °FFrigid.1 mph80%29.55 "HgN/A
7:00 am-9 °FFrigid.1 mph80%29.50 "HgN/A
6:00 am-10 °FExtremely cold.1 mph81%29.47 "HgN/A
5:00 am-8 °FFrigid.1 mph82%29.47 "HgN/A
4:00 am-8 °FFrigid.1 mph83%29.44 "HgN/A
3:00 am-8 °FFrigid.1 mph81%29.41 "HgN/A
2:00 am-8 °FFrigid.1 mph81%29.41 "HgN/A
1:00 am-4 °FFrigid.1 mph84%29.38 "HgN/A
12:00 am-1 °FFrigid.1 mph84%29.35 "HgN/A
11:00 pm
Thu, Feb 23
1 °FFrigid.1 mph85%29.32 "HgN/A
10:00 pm8 °FFrigid.1 mph87%29.29 "HgN/A
9:00 pm11 °FCold.2 mph90%29.26 "HgN/A
8:00 pm9 °FFrigid.2 mph89%29.26 "HgN/A
7:00 pm12 °FCold.1 mph86%29.23 "HgN/A
Weather by CustomWeather, © 2017

See weather overviewHow to use our weather pages